Regional Weather Roundup
Issued by NWS

Home | Current Version | Previous Version | Graphics & Text | Print | Product List | Glossary On
Versions: 1 2 3 4 5 6 7 8 9 10 11 12 13 14 15 16 17 18 19 20 21 22 23 24 25 26 27 28 29 30 31 32 33 34 35 36 37 38 39 40 41 42 43 44 45 46 47 48 49 50
000
ASUS45 KABQ 040901
RWRNM
NEW MEXICO REGIONAL WEATHER ROUNDUP
NATIONAL WEATHER SERVICE ALBUQUERQUE NM
300 AM MDT SAT JUL 04 2015

NOTE: "FAIR" MEANS FEW OR NO CLOUDS BELOW 12,000 FEET AGL WITH NO
       SIGNIFICANT WEATHER OR OBSTRUCTIONS TO VISION.

      THIS PRODUCT IS RELEASED AS TWO VERSIONS.  ONE VERSION NEAR
      THE TOP OF THE HOUR CONTAINING PRELIMINARY DATA FROM ALBUQUERQUE
      AND OTHER STATIONS.  A FINAL VERSION WITH ADDITIONAL DATA IS
      ISSUED ABOUT 10 MINUTES AFTER THE HOUR.

NMZ501-503-504-510>518-041000-
NORTHWEST PLATEAU/NORTHCENTRAL MOUNTAINS

CITY           SKY/WX    TMP DP  RH WIND       PRES   REMARKS
FARMINGTON     CLEAR     62  55  77 N7        30.13R
SANTA FE       CLOUDY    67  52  58 SE8       30.22S
TAOS           CLOUDY    55  43  62 N6        30.28S
ANGEL FIRE     FAIR      49  47  93 CALM      30.37S

$$
NMZ402-403-502-505>509-041000-
WESTCENTRAL MOUNTAINS/SOUTHWEST MOUNTAINS

CITY           SKY/WX    TMP DP  RH WIND       PRES   REMARKS
GALLUP         MOCLDY    62  50  64 SW3       30.19F
GRANTS         MOCLDY    62  57  82 CALM      30.22F
SILVER CITY      N/A     68  59  73 S5        30.13F

$$
NMZ407-409-411-412-041000-
SOUTHERN DESERTS

CITY           SKY/WX    TMP DP  RH WIND       PRES   REMARKS
LORDSBURG      FAIR      72  59  64 SE14      30.05S
DEMING         CLOUDY    69  67  93 W3        30.05F
HOLLOMAN AFB   PTCLDY    68  64  85 NE6       30.04S
ALAMOGORDO     CLEAR     70  59  68 NE8       30.06F
T OR C         CLOUDY    70  60  70 S5        30.09F

$$
NMZ519>523-041000-
CENTRAL VALLEYS/CENTRAL HIGHLANDS

CITY           SKY/WX    TMP DP  RH WIND       PRES   REMARKS
ALBUQUERQUE    MOCLDY    74  56  53 NE8       30.14F
DOUBLE EAGLE   MOCLDY    66  56  71 CALM      30.18S
MORIARTY ARPT    N/A     61  55  78 CALM      30.23S
CLINES CORNERS MOCLDY    60  55  83 SE8       30.26F
BELEN          FAIR      70  56  61 SE3       30.12S
SOCORRO        NOT AVBL

$$
NMZ524>526-539-540-041000-
SOUTHCENTRAL MOUNTAINS

CITY           SKY/WX    TMP DP  RH WIND       PRES   REMARKS
RUIDOSO        NOT AVBL

$$
NMZ527>531-041000-
NORTHEAST HIGHLANDS/NORTHEAST PLAINS

CITY           SKY/WX    TMP DP  RH WIND       PRES   REMARKS
LAS VEGAS      MOCLDY    57  53  86 CALM      30.26F
RATON          CLOUDY    60  58  92 CALM      30.23R
CLAYTON        MOCLDY    64  59  83 SW13      30.12F

$$
NMZ532>537-041000-
EASTCENTRAL PLAINS

CITY           SKY/WX    TMP DP  RH WIND       PRES   REMARKS
TUCUMCARI      CLEAR     67  53  61 S10       30.09F
CANNON AFB     MOCLDY    63  61  94 E6        30.13F
CLOVIS AIRPORT MOCLDY    64  57  77 E12         N/A

$$
NMZ028-029-538-041000-
SOUTHEAST PLAINS

CITY           SKY/WX    TMP DP  RH WIND       PRES   REMARKS
ROSWELL        CLEAR     69  60  73 CALM      30.06S
ARTESIA        PTCLDY    70  66  88 SW3       30.06S
CARLSBAD       PTCLDY    71  64  78 CALM      30.02F
HOBBS          CLEAR     66  63  88 CALM      30.08S


$$



USA.gov is the U.S. government's official web portal to all federal, state and local government web resources and services.